This is the latest recevied weather packets stored in our database for station/object N7SWJ. If no packets are shown the sender has not sent any weather packets the latest 1 day(s).
| Time | Temp. | Humidity | Pressure | Rain* | Wind** | Luminosity | Snow |
|---|---|---|---|---|---|---|---|
| 1778022555 | 1.67° C | 95% | 1015.9 hPa | 1.78 mm | 0 m/s | 42 W/m² | - |
| 1778022262 | 1.67° C | 95% | 1015.9 hPa | 1.78 mm | 0 m/s | 45 W/m² | - |
| 1778021948 | 1.67° C | 95% | 1015.9 hPa | 1.27 mm | 0.45 m/s, 51° | 43 W/m² | - |
| 1778021646 | 1.67° C | 95% | 1015.5 hPa | 1.27 mm | 0.45 m/s, 40° | 44 W/m² | - |
| 1778021340 | 2.22° C | 95% | 1015.5 hPa | 0 mm | 0.45 m/s, 67° | 53 W/m² | - |
| 1778021038 | 2.22° C | 95% | 1015.8 hPa | 0 mm | 0.45 m/s, 57° | 61 W/m² | - |
| 1778020735 | 1.67° C | 95% | 1015.8 hPa | 1.78 mm | 0 m/s | 56 W/m² | - |
| 1778020432 | 1.67° C | 95% | 1015.8 hPa | 1.78 mm | 0.45 m/s, 54° | 79 W/m² | - |
| 1778020128 | 1.67° C | 94% | 1015.5 hPa | 1.27 mm | 0.45 m/s, 85° | 73 W/m² | - |
| 1778019824 | 1.67° C | 94% | 1015.3 hPa | 1.27 mm | 0.89 m/s, 5° | 76 W/m² | - |
| 1778019521 | 2.22° C | 94% | 1015.3 hPa | 3.05 mm | 0.45 m/s, 61° | 104 W/m² | - |
| 1778019218 | 1.67° C | 94% | 1015.5 hPa | 3.05 mm | 0.45 m/s, 58° | 78 W/m² | - |
| 1778018915 | 2.22° C | 94% | 1015.7 hPa | 1.27 mm | 0.45 m/s, 64° | 113 W/m² | - |
| 1778018612 | 2.22° C | 94% | 1015.4 hPa | 0 mm | 0.45 m/s, 79° | 105 W/m² | - |
| 1778018310 | 2.22° C | 94% | 1015.2 hPa | 0 mm | 2.24 m/s, 105° | 99 W/m² | - |
| 1778018008 | 2.22° C | 94% | 1015.3 hPa | 1.78 mm | 0.45 m/s, 55° | 103 W/m² | - |
| 1778017706 | 2.22° C | 94% | 1015.3 hPa | 1.78 mm | 1.34 m/s, 71° | 89 W/m² | - |
| 1778017403 | 2.22° C | 94% | 1015.1 hPa | 1.78 mm | 0.89 m/s, 9° | 95 W/m² | - |
| 1778017100 | 2.78° C | 94% | 1015.3 hPa | 0 mm | 0.89 m/s, 54° | 84 W/m² | - |
| 1778016798 | 2.78° C | 94% | 1015 hPa | 0 mm | 0.89 m/s, 69° | 114 W/m² | - |
| 1778016493 | 2.78° C | 94% | 1015 hPa | 0 mm | 1.34 m/s, 44° | 96 W/m² | - |
| 1778016191 | 2.78° C | 94% | 1015.4 hPa | 0 mm | 0.45 m/s, 78° | 165 W/m² | - |
| 1778015886 | 2.78° C | 94% | 1015.3 hPa | 0 mm | 0.89 m/s, 121° | 122 W/m² | - |
| 1778015585 | 2.22° C | 94% | 1015.4 hPa | 1.78 mm | 1.34 m/s, 57° | 103 W/m² | - |
| 1778015281 | 2.78° C | 94% | 1015.7 hPa | 1.78 mm | 0.89 m/s, 35° | 159 W/m² | - |
* Rain latest hour (hover to see other rain measurements)
** Current wind speed in m/s (hover to see current wind gust speed)